Astoria, OR

12:52 PM PDT on July 21, 2017 (GMT -0700)
Astoria Regional

Weather History for KAST - December, 2012

Change the Weather History Date:

Monday, December 17, 2012

  Actual Average Record
Temperature  
Mean Temperature 44 °F 42 °F  
Max Temperature 49 °F 48 °F 60 °F (1979)
Min Temperature 38 °F 36 °F 13 °F (1924)
Degree Days  
Heating Degree Days 21 23  
Month to date heating degree days 332 377  
Since 1 July heating degree days 1737 1790  
Cooling Degree Days 0 0  
Month to date cooling degree days 0 0  
Year to date cooling degree days 25 12  
Moisture  
Dew Point 36 °F    
Average Humidity 73    
Maximum Humidity 93    
Minimum Humidity 53    
Precipitation  
Precipitation 0.29 in 0.30 in 3.22 in (1933)
Month to date precipitation 8.34 5.56  
Year to date precipitation 85.06 62.93  
Snow  
Snow 0.00 in - - ()
Snow Depth 0.00 in    
Sea Level Pressure  
Sea Level Pressure 29.55 in    
Wind  
Wind Speed 18 mph (West)    
Max Wind Speed 39 mph    
Max Gust Speed 53 mph    
Visibility 8 miles    
Events Rain    
T = Trace of Precipitation, MM = Missing Value Source: NWS Daily Summary

Daily Weather History Graph

Daily Weather History Graph

Search for Another Location

Airport or City:

Trip Planner

Search our weather history database for the weather conditions in past years. The results will help you decide how hot, cold, wet, or windy it might be!

Date:

Astronomy

Dec. 17, 2012 Rise Set
Actual Time 7:53 AM PST 4:30 PM PST
Civil Twilight 7:18 AM PST 5:05 PM PST
Nautical Twilight 6:40 AM PST 5:43 PM PST
Astronomical Twilight 6:03 AM PST 6:20 PM PST
Moon 10:50 AM PST (12/17) 10:14 PM PST (12/17)
Length of Visible Light 9h 47m
Length of Day
8h 37m
Waxing Crescent, 26% of the Moon is Illuminated
Dec 17
Waxing Crescent
Dec 19
First Quarter
Dec 28
Full
Jan 4
Last Quarter
Jan 11
New

Hourly Weather History & Observations

Time (PST) Temp. Windchill Dew Point Humidity Pressure Visibility Wind Dir Wind Speed Gust Speed Precip Events Conditions
12:32 AM 48.2 °F - 46.4 °F 93% 29.03 in 8.0 mi SW 26.5 mph 43.7 mph 0.00 in Rain Light Rain
12:50 AM 48.2 °F - 46.4 °F 93% 29.05 in 2.5 mi WSW 29.9 mph 43.7 mph 0.01 in Rain Light Rain
12:55 AM 48.0 °F - 46.0 °F 93% 29.05 in 2.5 mi WSW 27.6 mph 42.6 mph 0.01 in Rain Light Rain
1:11 AM 48.2 °F - 44.6 °F 87% 29.06 in 6.0 mi WSW 28.8 mph 40.3 mph 0.02 in Rain Light Rain
1:24 AM 48.2 °F - 46.4 °F 93% 29.07 in 2.5 mi WSW 27.6 mph 39.1 mph 0.04 in Rain Rain
1:34 AM 48.2 °F - 44.6 °F 87% 29.10 in 4.0 mi West 35.7 mph 51.8 mph 0.08 in Rain Light Rain
1:43 AM 46.4 °F 37.2 °F 42.8 °F 87% 29.13 in 9.0 mi West 29.9 mph 50.6 mph 0.09 in Rain Light Rain
1:55 AM 46.9 °F - 41.0 °F 80% 29.16 in 7.0 mi West 36.8 mph 46.0 mph 0.09 in Rain Light Rain
2:11 AM 46.4 °F 36.9 °F 39.2 °F 76% 29.21 in 9.0 mi West 32.2 mph 42.6 mph 0.00 in Rain Light Rain
2:55 AM 46.0 °F 37.4 °F 37.9 °F 73% 29.29 in 10.0 mi West 25.3 mph 50.6 mph 0.00 in Rain Light Rain
3:10 AM 44.6 °F 34.1 °F 37.4 °F 76% 29.31 in 1.8 mi WNW 34.5 mph 52.9 mph 0.03 in Rain Heavy Rain
3:19 AM 44.6 °F 36.1 °F 37.4 °F 76% 29.32 in 3.0 mi West 21.9 mph 44.9 mph 0.08 in Rain Light Rain
3:55 AM 46.0 °F 38.5 °F 39.0 °F 76% 29.36 in 10.0 mi West 19.6 mph 36.8 mph 0.09 in   Overcast
4:55 AM 46.9 °F - 37.9 °F 71% 29.42 in 10.0 mi West 23.0 mph 39.1 mph N/A   Overcast
5:55 AM 45.0 °F 35.6 °F 37.9 °F 76% 29.49 in 10.0 mi West 27.6 mph 43.7 mph 0.02 in Rain Light Rain
6:55 AM 45.0 °F 35.8 °F 34.0 °F 65% 29.56 in 10.0 mi WNW 26.5 mph 36.8 mph 0.00 in   Overcast
7:55 AM 44.1 °F 35.4 °F 35.1 °F 71% 29.62 in 10.0 mi West 21.9 mph 39.1 mph 0.00 in Rain Light Rain
8:55 AM 45.0 °F 36.9 °F 32.0 °F 60% 29.67 in 10.0 mi West 20.7 mph 31.1 mph 0.00 in   Mostly Cloudy
9:55 AM 45.0 °F 36.9 °F 32.0 °F 60% 29.72 in 10.0 mi West 20.7 mph 32.2 mph N/A   Overcast
10:55 AM 45.0 °F 37.4 °F 28.9 °F 53% 29.76 in 10.0 mi West 18.4 mph 29.9 mph 0.00 in   Overcast
11:55 AM 45.0 °F 37.1 °F 30.9 °F 58% 29.78 in 10.0 mi West 19.6 mph 26.5 mph N/A   Mostly Cloudy
12:55 PM 43.0 °F 35.4 °F 32.0 °F 65% 29.80 in 6.0 mi West 16.1 mph 33.4 mph 0.01 in Rain Rain
1:55 PM 44.1 °F 36.5 °F 30.0 °F 58% 29.82 in 10.0 mi West 17.3 mph 33.4 mph 0.00 in   Scattered Clouds
4:22 PM 39.2 °F 31.6 °F 33.8 °F 81% 29.88 in 3.0 mi West 12.7 mph 23.0 mph 0.03 in Rain Rain
4:42 PM 39.2 °F 34.2 °F 33.8 °F 81% 29.88 in 10.0 mi West 6.9 mph - 0.03 in   Scattered Clouds
4:55 PM 39.0 °F 31.8 °F 33.1 °F 79% 29.88 in 10.0 mi West 11.5 mph 17.3 mph 0.03 in   Scattered Clouds
5:55 PM 39.9 °F 35.8 °F 33.1 °F 77% 29.89 in 10.0 mi WSW 5.8 mph - N/A   Partly Cloudy
6:55 PM 39.0 °F 34.0 °F 30.9 °F 73% 29.89 in 10.0 mi SW 6.9 mph - 0.00 in   Scattered Clouds
7:55 PM 39.9 °F 35.1 °F 32.0 °F 73% 29.90 in 10.0 mi SW 6.9 mph - N/A   Mostly Cloudy
8:55 PM 42.1 °F 33.3 °F 30.9 °F 65% 29.91 in 10.0 mi West 19.6 mph 27.6 mph 0.00 in   Mostly Cloudy
9:55 PM 41.0 °F 33.9 °F 32.0 °F 70% 29.92 in 10.0 mi SW 12.7 mph - N/A   Clear
10:55 PM 41.0 °F 35.2 °F 33.1 °F 73% 29.93 in 10.0 mi WSW 9.2 mph - N/A   Mostly Cloudy
11:55 PM 37.9 °F 34.4 °F 34.0 °F 86% 29.91 in 10.0 mi SSE 4.6 mph - 0.03 in   Overcast